When you browse on this site, cookies collect data to enhance your experience and personalize the content and advertising you see.
Visit our Privacy Policy to learn more. By continuing to use the site, you agree to this use of cookies and data.
  • In Hungary
  • List of Countries
  • For 7 days
  • Water Temperature
  • Weather Map
  • News
  • Weather Widgets
  • user-avatar
    Login

    Hourly Weather Volnino

    Today, 22 January, Wednesday

    Time Temperature Precipitation Wind Pressure Humidity
    00:00 -3°C° 0 mm 6 mps 737 mmHg 78%
    01:00 -2°C° 0 mm 5 mps 738 mmHg 79%
    02:00 -2°C° 0 mm 4 mps 738 mmHg 82%
    03:00 -2°C° 0 mm 5 mps 737 mmHg 82%
    04:00 -2°C° 0 mm 5 mps 736 mmHg 81%
    05:00 -2°C° 0 mm 5 mps 735 mmHg 81%
    06:00 -4°C° 0 mm 5 mps 735 mmHg 82%
    07:00 -4°C° 0 mm 5 mps 735 mmHg 84%
    08:00 -3°C° 0 mm 4 mps 735 mmHg 86%
    09:00 -2°C° 0.2 mm 4 mps 734 mmHg 86%
    10:00 -2°C° 0.2 mm 5 mps 734 mmHg 87%
    11:00 -2°C° 0.2 mm 5 mps 733 mmHg 88%
    12:00 -1°C° 0.2 mm 5 mps 733 mmHg 85%
    13:00 -1°C° 0.2 mm 5 mps 733 mmHg 82%
    14:00 -1°C° 0.2 mm 4 mps 733 mmHg 78%
    15:00 -2°C° 0 mm 4 mps 733 mmHg 80%
    16:00 -3°C° 0 mm 4 mps 733 mmHg 81%
    17:00 -4°C° 0 mm 4 mps 734 mmHg 82%
    18:00 -4°C° 0 mm 4 mps 734 mmHg 82%
    19:00 -5°C° 0 mm 4 mps 735 mmHg 82%
    20:00 -6°C° 0 mm 5 mps 735 mmHg 82%
    21:00 -6°C° 0 mm 5 mps 736 mmHg 83%
    22:00 -6°C° 0 mm 5 mps 736 mmHg 83%
    23:00 -6°C° 0 mm 6 mps 736 mmHg 83%

    Tomorrow, 23 January, Thursday

    Time Temperature Precipitation Wind Pressure Humidity
    00:00 -6°C° 0 mm 6 mps 737 mmHg 82%
    01:00 -6°C° 0 mm 6 mps 738 mmHg 81%
    02:00 -8°C° 0 mm 6 mps 738 mmHg 80%
    03:00 -8°C° 0 mm 6 mps 739 mmHg 77%
    04:00 -9°C° 0 mm 6 mps 739 mmHg 74%
    05:00 -9°C° 0 mm 6 mps 739 mmHg 72%
    06:00 -9°C° 0 mm 6 mps 740 mmHg 73%
    07:00 -8°C° 0 mm 5 mps 741 mmHg 75%
    08:00 -10°C° 0 mm 5 mps 742 mmHg 77%
    09:00 -8°C° 0 mm 5 mps 742 mmHg 71%
    10:00 -8°C° 0 mm 5 mps 743 mmHg 66%
    11:00 -9°C° 0 mm 6 mps 743 mmHg 61%
    12:00 -7°C° 0 mm 5 mps 743 mmHg 64%
    13:00 -7°C° 0 mm 5 mps 743 mmHg 68%
    14:00 -7°C° 0 mm 5 mps 743 mmHg 72%
    15:00 -8°C° 0.1 mm 6 mps 744 mmHg 74%
    16:00 -8°C° 0.1 mm 6 mps 744 mmHg 75%
    17:00 -8°C° 0.1 mm 6 mps 744 mmHg 77%
    18:00 -7°C° 0 mm 5 mps 745 mmHg 77%
    19:00 -8°C° 0 mm 4 mps 745 mmHg 77%
    20:00 -8°C° 0 mm 3 mps 746 mmHg 77%
    21:00 -7°C° 0 mm 2 mps 746 mmHg 78%
    22:00 -7°C° 0 mm 2 mps 746 mmHg 79%
    23:00 -7°C° 0 mm 2 mps 746 mmHg 80%

    Day after tomorrow, 24 January, Friday

    Time Temperature Precipitation Wind Pressure Humidity
    00:00 -7°C° 0 mm 2 mps 746 mmHg 81%
    01:00 -6°C° 0 mm 2 mps 746 mmHg 82%
    02:00 -6°C° 0 mm 2 mps 746 mmHg 83%
    03:00 -6°C° 0 mm 3 mps 745 mmHg 85%
    04:00 -6°C° 0 mm 3 mps 744 mmHg 87%
    05:00 -5°C° 0 mm 4 mps 743 mmHg 89%
    06:00 -5°C° 0.1 mm 4 mps 743 mmHg 88%
    07:00 -5°C° 0.1 mm 5 mps 742 mmHg 88%
    08:00 -5°C° 0.1 mm 5 mps 741 mmHg 88%
    09:00 -4°C° 0.5 mm 5 mps 741 mmHg 89%
    10:00 -4°C° 0.5 mm 6 mps 740 mmHg 91%
    11:00 -3°C° 0.5 mm 6 mps 739 mmHg 93%
    12:00 -3°C° 0 mm 6 mps 739 mmHg 94%
    13:00 -1°C° 0 mm 5 mps 738 mmHg 95%
    14:00 -1°C° 0 mm 5 mps 738 mmHg 96%
    15:00 0°C° 0.2 mm 5 mps 737 mmHg 96%
    16:00 0°C° 0.2 mm 5 mps 737 mmHg 95%
    17:00 +1°C° 0.2 mm 5 mps 736 mmHg 95%
    18:00 +1°C° 0.1 mm 5 mps 736 mmHg 95%
    19:00 +1°C° 0.1 mm 4 mps 736 mmHg 95%
    20:00 +1°C° 0.1 mm 4 mps 737 mmHg 95%
    21:00 +1°C° 0.2 mm 4 mps 736 mmHg 95%
    22:00 0°C° 0.2 mm 4 mps 736 mmHg 96%
    23:00 0°C° 0.2 mm 4 mps 736 mmHg 97%

    25 January, Saturday

    Time Temperature Precipitation Wind Pressure Humidity
    00:00 0°C° 0.2 mm 4 mps 736 mmHg 96%
    01:00 -1°C° 0.2 mm 4 mps 736 mmHg 95%
    02:00 0°C° 0.2 mm 3 mps 736 mmHg 94%
    03:00 0°C° 0 mm 3 mps 736 mmHg 93%
    04:00 -2°C° 0 mm 4 mps 736 mmHg 92%
    05:00 -2°C° 0 mm 4 mps 736 mmHg 90%
    06:00 -2°C° 0 mm 4 mps 736 mmHg 88%
    07:00 -2°C° 0 mm 4 mps 736 mmHg 87%
    08:00 -2°C° 0 mm 4 mps 736 mmHg 85%
    09:00 -2°C° 0 mm 4 mps 736 mmHg 83%
    10:00 -2°C° 0 mm 5 mps 736 mmHg 81%
    11:00 -1°C° 0 mm 5 mps 735 mmHg 80%
    12:00 -1°C° 0 mm 5 mps 735 mmHg 78%
    13:00 -2°C° 0 mm 6 mps 735 mmHg 77%
    14:00 -2°C° 0 mm 6 mps 734 mmHg 75%
    15:00 -2°C° 0.2 mm 7 mps 734 mmHg 76%
    16:00 -2°C° 0.2 mm 7 mps 734 mmHg 77%
    17:00 -4°C° 0.2 mm 8 mps 734 mmHg 79%
    18:00 -3°C° 0 mm 7 mps 735 mmHg 77%
    19:00 -4°C° 0 mm 7 mps 736 mmHg 75%
    20:00 -4°C° 0 mm 6 mps 736 mmHg 73%
    21:00 -4°C° 0 mm 6 mps 737 mmHg 74%
    22:00 -5°C° 0 mm 6 mps 738 mmHg 75%
    23:00 -5°C° 0 mm 5 mps 739 mmHg 76%

    26 January, Sunday

    Time Temperature Precipitation Wind Pressure Humidity
    00:00 -5°C° 0 mm 5 mps 739 mmHg 76%
    01:00 -5°C° 0 mm 5 mps 740 mmHg 77%
    02:00 -5°C° 0 mm 5 mps 741 mmHg 77%
    03:00 -5°C° 0 mm 5 mps 741 mmHg 77%
    04:00 -6°C° 0 mm 5 mps 742 mmHg 77%
    05:00 -6°C° 0 mm 5 mps 743 mmHg 77%
    06:00 -5°C° 0 mm 4 mps 744 mmHg 79%
    07:00 -5°C° 0 mm 4 mps 745 mmHg 80%
    08:00 -5°C° 0 mm 4 mps 745 mmHg 81%
    09:00 -5°C° 0 mm 4 mps 746 mmHg 79%
    10:00 -4°C° 0 mm 4 mps 747 mmHg 77%
    11:00 -4°C° 0 mm 4 mps 748 mmHg 75%
    12:00 -4°C° 0 mm 4 mps 748 mmHg 74%
    13:00 -2°C° 0 mm 3 mps 748 mmHg 74%
    14:00 -2°C° 0 mm 3 mps 749 mmHg 73%
    15:00 -4°C° 0 mm 3 mps 749 mmHg 77%
    16:00 -3°C° 0 mm 2 mps 749 mmHg 80%
    17:00 -4°C° 0 mm 2 mps 749 mmHg 84%
    18:00 -4°C° 0 mm 2 mps 749 mmHg 84%
    19:00 -4°C° 0 mm 2 mps 750 mmHg 83%
    20:00 -3°C° 0 mm 2 mps 750 mmHg 83%
    21:00 -3°C° 0 mm 2 mps 750 mmHg 83%
    22:00 -3°C° 0 mm 2 mps 750 mmHg 84%
    23:00 -3°C° 0 mm 2 mps 750 mmHg 85%

    27 January, Monday

    Time Temperature Precipitation Wind Pressure Humidity
    00:00 -3°C° 0.1 mm 2 mps 749 mmHg 88%
    01:00 -4°C° 0.1 mm 3 mps 749 mmHg 92%
    02:00 -2°C° 0.1 mm 3 mps 749 mmHg 96%
    03:00 -2°C° 0 mm 3 mps 749 mmHg 95%
    04:00 -2°C° 0 mm 3 mps 748 mmHg 94%
    05:00 -2°C° 0 mm 3 mps 748 mmHg 93%
    06:00 -1°C° 0.1 mm 3 mps 748 mmHg 94%
    07:00 -1°C° 0.1 mm 3 mps 748 mmHg 96%
    08:00 -1°C° 0.1 mm 3 mps 748 mmHg 97%
    09:00 -2°C° 0.1 mm 4 mps 748 mmHg 96%
    10:00 -2°C° 0.1 mm 4 mps 748 mmHg 96%
    11:00 -1°C° 0.1 mm 4 mps 748 mmHg 96%
    12:00 -1°C° 0 mm 4 mps 747 mmHg 95%
    13:00 -1°C° 0 mm 4 mps 747 mmHg 94%
    14:00 -1°C° 0 mm 4 mps 746 mmHg 93%
    15:00 -2°C° 0 mm 4 mps 746 mmHg 92%
    16:00 -2°C° 0 mm 4 mps 746 mmHg 91%
    17:00 -2°C° 0 mm 4 mps 745 mmHg 91%
    18:00 -2°C° 0.1 mm 4 mps 745 mmHg 93%
    19:00 -2°C° 0.1 mm 4 mps 744 mmHg 94%
    20:00 -2°C° 0.1 mm 4 mps 744 mmHg 96%
    21:00 -2°C° 0.3 mm 4 mps 743 mmHg 97%
    22:00 -1°C° 0.3 mm 4 mps 742 mmHg 97%
    23:00 -1°C° 0.3 mm 4 mps 742 mmHg 97%
    Show more